Powerscourt Airfield

Jump to: basic info | weather | comments

Related pages: nearby airports | nearby navaids | notams | map

Basic information (top)

Codes: EIPT
Location: lon 53.178301, lat -6.196495, elev 470 ft / 143 m msl
Status: small_airport

Weather (top)

Current conditions for Casement Air Base 12nm (22km) NW (rec'd 2014/07/28 06:00Z):

EIME 280600Z 30006KT 9000 -DZ FEW007 BKN008 BKN009 14/13 Q1018

Airport forecast for Dublin Airport 15nm (27km) N (rec'd 2014/07/28 06:24Z):

TAF EIDW 280500Z 2806/2906 30012KT 9999 SCT015 BKN025 
      TEMPO 2806/2808 BKN010

Latest comments (top)

Reopened: does anybody know about reopening and ppr? [read]

Operations suspended at this airport: Air Accident Investigation Unit Interim ... [read]

re: Powerscourt Airfield: Thank you very much - I've updated the position. [read]

Powerscourt Airfield: Position 53:10.787N 006:12.075W ... [read]

More... (top)

See also NOTAMs and nearby airports and navaids, or visit the Powerscourt Airfield page at the main OurAirports website..